Back to catalog

STARLINK-34934

AliveCommunicationsVLEO
NORAD 65897·PAYLOAD·🇺🇸 United States

Launched Oct 7, 2025 from Cape Canaveral Space Force Station

Loading…

Next Passes (next 24 hours)

TLE

FreshSource: CelesTrak SupGP

Epoch: Sep 15, 2026, 02:35 UTC

1 65897C 25224R   26258.10812500 -.00065257  00000+0 -19282-2 0  2588
2 65897  53.1574 207.1054 0001313  87.7326  43.4373 15.34420953    13

Track STARLINK-34934 in real time with AllMySat

Download on the App Store